Location: Newark
(10.3333°N, 37.7167°E)
Time: 08:49:44
(UTC+00:00)

LightSail 2 - Visible Passes

Search period start: 27 January 2020 00:00
Search period end: 06 February 2020 00:00
Orbit: 704 x 719 km, 24.0° (Epoch: 26 January)

Date Brightness Start Highest point End Pass type
(mag) Time Alt. Az. Time Alt. Az. Time Alt. Az.
27 Jan 5.8 17:12:57 10° NW 17:17:01 43° NNW 17:17:01 43° NNW visible
28 Jan 5.9 16:14:37 10° NW 16:19:21 36° NNE 16:22:35 18° ENE visible
28 Jan 7.3 17:59:49 10° WNW 18:01:33 21° WNW 18:01:33 21° WNW visible
29 Jan 5.0 17:01:18 10° WNW 17:06:27 79° NNE 17:07:11 64° E visible
30 Jan 5.3 16:02:52 10° WNW 16:07:54 56° NNE 16:12:54 10° E visible
30 Jan 6.7 17:48:32 10° W 17:51:53 33° WSW 17:51:53 33° WSW visible
31 Jan 5.5 16:49:48 10° WNW 16:54:52 60° SSW 16:57:40 26° SE visible
01 Feb 5.2 15:51:12 10° WNW 15:56:20 87° SSW 16:01:30 10° ESE visible
01 Feb 7.0 17:37:40 10° W 17:41:46 24° SSW 17:42:30 23° SSW visible
02 Feb 6.6 16:38:36 10° W 16:43:13 34° SSW 16:47:52 10° SE visible
03 Feb 7.7 17:27:44 10° SW 17:30:09 13° SSW 17:32:34 10° S visible
04 Feb 7.5 16:27:55 10° WSW 16:31:33 19° SSW 16:35:12 10° SSE visible
05 Feb 7.6 03:08:44 10° SSW 03:12:16 18° SSE 03:15:46 10° ESE visible
